Location: Campbell Hill
(37.9301°N, 89.5490°W)
Time: 11:08:57
(UTC+00:00)

Meteor 1-11 - Pass Details

Date: 07 November 2025
Orbit: 830 x 894 km, 81.2° (Epoch: 07 December)

Event Time Altitude Azimuth Distance (km) Brightness Sun altitude
Rises 23:44:49 0° 349° (NNW) 3,483 7.4 -10.7°
Reaches altitude 10° 23:47:17 10° 347° (NNW) 2,532 6.7 -11.1°
Maximum altitude 23:53:01 75° 264° (W) 896 4.5 -12.2°
Drops below altitude 10° 23:58:37 10° 179° (S) 2,472 6.8 -13.3°
Sets 00:01:01 0° 178° (S) 3,394 7.5 -13.8°
